Millville, NJ

9:02 AM EDT on September 19, 2017 (GMT -0400)
Millville Municipal

Weather History for KMIV - March, 2014

Change the Weather History Date:

Sunday, March 2, 2014

  Actual Average Record
Temperature  
Mean Temperature 35 °F -  
Max Temperature 46 °F 49 °F 72 °F (1972)
Min Temperature 24 °F 30 °F 10 °F (1967)
Degree Days  
Heating Degree Days 30    
Moisture  
Dew Point 32 °F    
Average Humidity 86    
Maximum Humidity 100    
Minimum Humidity 48    
Precipitation  
Precipitation 0.11 in - - ()
Sea Level Pressure  
Sea Level Pressure 30.04 in    
Wind  
Wind Speed 3 mph (NNW)    
Max Wind Speed 9 mph    
Max Gust Speed -    
Visibility 6 miles    
Events Rain    
Averages and records for this station are not official NWS values.
T = Trace of Precipitation, MM = Missing Value Source: NWS Daily Summary

Daily Weather History Graph

Daily Weather History Graph

Search for Another Location

Airport or City:

Trip Planner

Search our weather history database for the weather conditions in past years. The results will help you decide how hot, cold, wet, or windy it might be!

Date:

Astronomy

Mar. 02, 2014 Rise Set
Actual Time 6:31 AM EST 5:53 PM EST
Civil Twilight 6:04 AM EST 6:20 PM EST
Nautical Twilight 5:33 AM EST 6:51 PM EST
Astronomical Twilight 5:02 AM EST 7:22 PM EST
Moon 7:02 AM EST (3/2) 7:46 PM EST (3/2)
Length of Visible Light 12h 15m
Length of Day
11h 22m
Waxing Crescent, 3% of the Moon is Illuminated
Mar 2
Waxing Crescent
Mar 8
First Quarter
Mar 16
Full
Mar 23
Last Quarter
Mar 30
New

Hourly Weather History & Observations

Time (EST) Temp. Windchill Dew Point Humidity Pressure Visibility Wind Dir Wind Speed Gust Speed Precip Events Conditions
12:54 AM 25.0 °F - 21.9 °F 88% 30.18 in 10.0 mi Calm Calm - N/A   Clear
1:54 AM 24.1 °F - 21.9 °F 91% 30.14 in 10.0 mi Calm Calm - N/A   Clear
2:54 AM 28.0 °F - 26.1 °F 92% 30.13 in 10.0 mi Calm Calm - N/A   Overcast
3:54 AM 30.0 °F - 28.0 °F 92% 30.12 in 10.0 mi Calm Calm - N/A   Overcast
4:54 AM 33.1 °F - 28.9 °F 85% 30.10 in 10.0 mi Calm Calm - N/A   Overcast
5:54 AM 32.0 °F 28.7 °F 28.0 °F 85% 30.08 in 10.0 mi Variable 3.5 mph - N/A   Scattered Clouds
6:54 AM 35.1 °F - 28.9 °F 78% 30.08 in 10.0 mi Calm Calm - N/A   Scattered Clouds
7:54 AM 37.0 °F - 30.9 °F 79% 30.09 in 10.0 mi Calm Calm - N/A   Overcast
8:54 AM 41.0 °F 39.0 °F 30.9 °F 67% 30.10 in 10.0 mi WSW 3.5 mph - N/A   Overcast
9:54 AM 45.0 °F 40.1 °F 30.0 °F 56% 30.08 in 10.0 mi West 9.2 mph - N/A   Overcast
10:54 AM 46.0 °F 43.9 °F 28.9 °F 51% 30.06 in 10.0 mi SW 4.6 mph - N/A   Overcast
11:54 AM 46.9 °F - 30.0 °F 52% 30.04 in 10.0 mi NNW 9.2 mph - N/A   Mostly Cloudy
12:54 PM 46.9 °F - 28.0 °F 48% 30.00 in 10.0 mi NW 3.5 mph - N/A   Partly Cloudy
1:54 PM 45.0 °F 41.2 °F 28.0 °F 52% 29.99 in 10.0 mi North 6.9 mph - N/A   Overcast
2:54 PM 43.0 °F 38.8 °F 28.0 °F 56% 30.01 in 10.0 mi North 6.9 mph - N/A   Overcast
3:54 PM 39.9 °F 37.8 °F 34.0 °F 79% 30.01 in 8.0 mi NW 3.5 mph - 0.01 in Rain Light Rain
4:54 PM 37.9 °F 34.4 °F 35.1 °F 89% 30.03 in 4.0 mi NNW 4.6 mph - 0.03 in Rain Light Rain
5:54 PM 37.0 °F 33.3 °F 35.1 °F 93% 30.02 in 4.0 mi North 4.6 mph - 0.04 in Rain Light Rain
6:54 PM 36.0 °F 33.3 °F 35.1 °F 97% 30.02 in 4.0 mi North 3.5 mph - 0.00 in   Overcast
7:54 PM 36.0 °F 33.3 °F 35.1 °F 97% 30.01 in 3.0 mi North 3.5 mph - 0.01 in   Overcast
8:18 PM 36.0 °F 32.1 °F 35.1 °F 97% 30.02 in 2.5 mi NNW 4.6 mph - 0.00 in   Overcast
8:39 PM 36.0 °F 33.3 °F 35.1 °F 97% 30.01 in 3.0 mi NNW 3.5 mph - 0.00 in Rain Light Rain
8:52 PM 35.6 °F 31.7 °F 35.6 °F 100% 30.01 in 2.5 mi North 4.6 mph - 0.00 in Rain Light Rain
8:54 PM 36.0 °F 32.1 °F 35.1 °F 97% 30.01 in 2.5 mi North 4.6 mph - 0.00 in Rain Light Rain
9:02 PM 36.0 °F 33.3 °F 35.1 °F 97% 30.01 in 3.0 mi North 3.5 mph - 0.00 in Rain Light Rain
9:28 PM 36.0 °F 32.1 °F 34.0 °F 93% 30.02 in 2.5 mi NNW 4.6 mph - 0.00 in Rain Light Rain
9:40 PM 35.1 °F 32.2 °F 34.0 °F 96% 30.02 in 2.5 mi NNW 3.5 mph - 0.00 in   Overcast
9:54 PM 35.1 °F 31.0 °F 34.0 °F 96% 30.01 in 2.5 mi North 4.6 mph - 0.00 in   Overcast
10:19 PM 35.1 °F 31.0 °F 34.0 °F 96% 30.02 in 2.0 mi NNW 4.6 mph - 0.00 in Rain Light Rain
10:35 PM 35.1 °F 32.2 °F 34.0 °F 96% 30.01 in 2.0 mi NNW 3.5 mph - 0.01 in Rain Light Rain
10:42 PM 35.1 °F 31.0 °F 34.0 °F 96% 30.01 in 1.8 mi NNW 4.6 mph - 0.01 in Rain Light Rain
10:54 PM 35.1 °F 30.1 °F 34.0 °F 96% 30.01 in 2.0 mi North 5.8 mph - 0.01 in Rain Light Rain
10:57 PM 35.1 °F 31.0 °F 34.0 °F 96% 30.01 in 1.8 mi North 4.6 mph - 0.01 in Rain Light Rain
11:05 PM 35.1 °F 31.0 °F 34.0 °F 96% 30.00 in 1.8 mi North 4.6 mph - 0.01 in Rain Light Rain
11:09 PM 35.1 °F 31.0 °F 34.0 °F 96% 30.00 in 2.0 mi North 4.6 mph - 0.01 in Rain Light Rain
11:23 PM 35.1 °F 32.2 °F 34.0 °F 96% 30.00 in 2.5 mi North 3.5 mph - 0.01 in Rain Light Rain
11:36 PM 35.1 °F 31.0 °F 34.0 °F 96% 30.00 in 2.5 mi North 4.6 mph - 0.01 in Rain Light Rain
11:54 PM 35.1 °F 28.6 °F 34.0 °F 96% 29.98 in 2.5 mi North 8.1 mph - 0.01 in Rain Light Rain